(313) Chaldaea
ephemeris date magn radius delta ra dec elong phase
Today18 Sep 202514.42.385 AU3.029 AU14h28m-06°30'42.4°16.5°
Opposition24 Jul 202613.12.793 AU1.800 AU20h03m-05°08'165.0°5.4°
(313) Chaldaea - 2025-09-18
astro.vanbuitenen.nl


 
-1 year
-1 month
-1 day
Now
+1 day
+1 month
+1 year

The interactive orbit chart above shows the body's path through the solar system and its position at the given date. Green and blue lines are shown perpendicular to the ecliptic plane: Green if the path is above the ecliptic plane, blue if it is below. (Left-click and drag to rotate the view; Right-click and drag to move the view; Use scroll wheel to zoom in our out.)

The orbital elements of Chaldaea are:

            e (Eccentricity)                : 0.1808084
            a (Semimajor axis)              : 2.3753201
            i (Inclination)                 : 11.64441
            Ω (Longitude of ascending node) : 176.53710
            ω (Argument of perihelion)      : 315.68823
            M (Mean anomaly)                : 44.34067
            Epoch                           : 2025 May 05

            L (Longitude of perihelion)     : 132.82072
            B (Latitude of perihelion)      : -8.10547
            P (Orbital period in years)     : 3.66            
        

The light curve chart below shows the estimated development of the minor planet's magnitude.


The all-sky chart below shows the path of the minor planet over the same period as the light curve. The current position is marked yellow.





The following chart shows the path of the minor planet in the next few days. The field of view is optimized for (~10x50) binoculars and finderscopes. A more printer-friendly version of the same chart can be found below.




Ephemerides:
Date       Time       RA (2000)    DEC (2000)    delta   radius  elong  phase   PA    magn
2025-09-18 00:00 UT   14 28 02.9   -06 30 38     3.029    2.385   42.4   16.5   100   14.4 
2025-09-18 08:20 UT   14 28 38.9   -06 33 34     3.032    2.386   42.2   16.4   100   14.4 
2025-09-19 00:00 UT   14 29 46.6   -06 39 05     3.039    2.387   41.9   16.3   100   14.4 
2025-09-20 00:00 UT   14 31 30.4   -06 47 29     3.049    2.389   41.4   16.1   100   14.4 
2025-09-21 00:00 UT   14 33 14.5   -06 55 50     3.058    2.391   40.9   15.9    99   14.4 
2025-09-22 00:00 UT   14 34 58.7   -07 04 09     3.068    2.393   40.4   15.8    99   14.4 
2025-09-23 00:00 UT   14 36 43.2   -07 12 25     3.078    2.395   39.9   15.6    99   14.4 
2025-09-24 00:00 UT   14 38 27.9   -07 20 38     3.087    2.397   39.3   15.4    98   14.4 
2025-09-25 00:00 UT   14 40 12.7   -07 28 49     3.097    2.399   38.8   15.2    98   14.4 
2025-09-26 00:00 UT   14 41 57.8   -07 36 56     3.106    2.401   38.3   15.0    98   14.4 
2025-09-27 00:00 UT   14 43 43.0   -07 45 01     3.115    2.403   37.8   14.8    98   14.4 
2025-09-28 00:00 UT   14 45 28.4   -07 53 02     3.124    2.405   37.3   14.6    97   14.4 
2025-09-29 00:00 UT   14 47 14.0   -08 01 01     3.133    2.407   36.8   14.4    97   14.4 
2025-09-30 00:00 UT   14 48 59.8   -08 08 56     3.142    2.409   36.3   14.2    97   14.4 
2025-10-01 00:00 UT   14 50 45.7   -08 16 48     3.151    2.411   35.8   14.1    96   14.4 
2025-10-02 00:00 UT   14 52 31.8   -08 24 37     3.160    2.413   35.3   13.9    96   14.4 
2025-10-03 00:00 UT   14 54 18.1   -08 32 22     3.169    2.415   34.8   13.7    96   14.4 
2025-10-04 00:00 UT   14 56 04.6   -08 40 05     3.177    2.417   34.3   13.5    95   14.4 
2025-10-05 00:00 UT   14 57 51.2   -08 47 43     3.186    2.419   33.8   13.3    95   14.4 
2025-10-06 00:00 UT   14 59 38.0   -08 55 18     3.194    2.421   33.3   13.1    95   14.4 


    Terminology:
            
    delta:  distance between minor planet and earth in AU
    radius: distance between minor planet and sun in AU
    magn:   magnitude (brightness) estimate    
    ra:     right ascension in hours (24h = 360deg)
    dec:    declination in degrees
    elong:  elongation in degrees (angle sun-earth-minor planet)    
    phase:  phase angle in degrees (angle sun-minor planet-earth)        
    AU:     Astronomical Unit (mean distance between earth and sun: 149597870.7 km
    

Orbital elements provided by the MPC (Minor Planet Center).
Calculations by a modified version of AAPlus, a C# implementation of the AA+ project by PJ Naughter from the algorithms presented in the book "Astronomical Algorithms" by Jean Meeus.
NGC2000 dso catalog and star labels from VizieR as provided by the Strasbourg astronomical Data Center.
Tycho2 catalog from the ESO archive.